User: anonymous   Login
Location: Unspecified
(0.0000°N, 0.0000°E)
Time: 01:59:27
(UTC+00:00)
Language:

OSNSAT - Orbit

View from above orbital plane
View from above orbital plane
View from above satellite
View from above satellite

Ground track
Ground track

The orbit data is extracted from the following two-line orbital elements,

1 41939U 98067KZ  17325.23138726  .00199123  00000-0  83494-3 0  9992
2 41939  51.6338 310.3025 0007153  93.0264 267.1558 15.84425008 47606
Epoch (UTC): 21 November 2017 05:33:11
Eccentricity: 0.0007153
inclination: 51.6338°
perigee height: 313 km
apogee height: 323 km
right ascension of ascending node: 310.3025°
argument of perigee: 93.0264°
revolutions per day: 15.84425008
mean anomaly at epoch: 267.1558°
orbit number at epoch: 4760

The dashed part of the orbit path shows where the satellite is in the earth's shadow,  

DLR